Temperature
19 19 20 20 17 15 17 18 19 20 21 23 23 23 22 21 22 21 21 20 20 20 20 19 17 16 16 16 15 15 15 14 14 14 12 12 12 12 12 12 12 12 13 14 14 14 14 13 13
19 19 20 19 15 16 17 19 20 21 21 22 23 23 22 20 21 21 21 21 20 20 20 19 17 16 16 15 15 15 15 14 14 13 12 12 12 12 12 12 12 13 14 14 15 15 14 14 13
18 19 19 15 15 15 18 20 20 22 22 22 23 22 21 20 20 21 21 21 21 20 20 19 18 16 16 15 15 15 15 14 14 13 13 12 13 13 13 13 13 13 14 14 14 14 14 14 14
18 18 18 14 16 16 17 18 20 21 22 23 23 21 21 21 21 21 22 21 21 20 19 19 18 17 16 16 15 15 15 14 14 14 13 13 13 13 13 13 13 13 13 14 14 14 14 14 14
17 17 15 14 15 16 17 19 21 21 21 22 22 20 20 21 21 21 21 21 21 20 19 18 18 18 17 16 16 15 15 14 14 14 13 13 13 13 13 13 13 13 13 14 14 14 14 14 14
17 14 13 13 15 16 16 20 21 21 21 22 21 20 20 21 21 20 20 20 20 19 19 18 18 18 17 16 16 16 15 14 14 14 14 14 14 13 14 13 13 14 14 14 14 14 14 14 15
15 12 13 14 15 15 18 21 20 20 21 22 21 20 20 21 21 20 20 19 19 19 19 18 19 18 17 17 17 16 15 14 14 14 14 15 14 14 14 14 14 14 14 14 15 15 14 15 14
16 13 13 13 14 15 18 21 21 21 21 22 22 20 20 21 21 21 20 20 19 19 19 18 19 19 18 17 17 16 15 15 15 15 15 16 15 14 14 14 14 14 14 14 14 14 14 14 14
14 12 12 13 14 15 18 20 21 22 22 22 22 22 22 22 21 20 20 20 19 19 19 19 19 19 18 18 17 16 16 15 15 15 15 16 16 15 15 15 15 15 14 14 14 14 14 14 13
13 12 12 14 15 16 17 18 20 20 20 21 21 21 21 21 21 20 21 21 20 20 20 19 19 19 18 18 17 16 16 15 15 15 15 15 15 15 15 14 14 14 14 14 13 13 13 13 13
12 11 13 15 17 17 17 18 20 19 18 20 21 21 21 21 21 21 21 21 21 21 20 20 19 19 18 17 17 16 15 15 15 15 15 15 14 14 13 13 13 13 13 13 13 13 12 12 12
12 12 14 16 17 17 16 17 18 19 20 21 21 21 21 20 20 21 21 22 22 21 21 20 19 19 18 17 16 15 15 14 14 14 14 14 14 13 13 13 13 13 12 12 12 12 12 12 12
11 12 14 15 16 17 17 16 17 18 20 20 20 21 21 21 21 21 21 21 22 22 21 20 19 18 17 16 15 15 14 14 14 13 13 14 13 13 13 12 12 12 12 12 12 12 12 12 13
11 12 13 14 15 16 16 16 16 17 19 20 20 20 20 21 21 21 21 21 21 21 21 20 18 17 17 16 15 14 14 13 13 13 13 13 13 13 13 12 12 12 12 12 12 12 12 12 12
12 11 11 13 14 15 16 15 15 18 19 20 20 20 20 20 20 21 21 21 21 21 21 19 18 17 16 15 14 14 13 13 13 13 13 13 13 12 12 12 12 12 12 12 12 12 12 12 12
10 10 11 13 14 15 15 14 16 19 19 19 20 20 20 20 20 20 21 20 20 20 20 18 17 16 15 15 14 14 13 13 13 13 12 12 12 12 12 12 12 12 12 12 12 12 11 11 10
10 9 10 12 14 14 14 13 15 19 18 18 19 20 20 19 19 19 20 19 19 19 18 17 17 16 15 14 13 13 13 13 13 12 12 12 12 12 12 12 12 12 11 11 11 10 9 9 9
10 9 10 11 13 13 14 14 15 18 18 18 19 19 19 18 19 19 19 18 18 17 17 17 16 15 14 14 13 12 12 12 12 12 12 12 12 12 12 12 11 11 10 10 9 9 8 8 8
9 9 9 10 12 12 13 14 15 16 16 16 18 18 18 18 18 17 17 17 16 16 17 17 16 15 14 13 12 12 12 12 12 12 12 12 12 11 11 11 10 10 9 9 8 8 8 7 7
8 8 8 9 12 12 12 12 14 15 15 17 17 18 18 17 16 16 16 15 15 15 15 15 15 14 13 13 12 12 12 12 12 12 12 11 11 11 11 10 10 9 9 8 7 7 7 7 6
8 8 8 9 10 12 12 12 13 14 16 17 18 18 18 17 17 16 15 15 14 14 14 14 14 13 13 13 12 12 12 12 12 12 11 11 11 11 10 9 9 8 8 7 7 6 6 6 6
8 9 9 10 9 9 11 11 12 14 14 15 16 16 17 17 16 15 14 14 14 13 13 13 13 13 13 12 12 12 13 12 12 12 11 11 10 10 9 9 8 8 7 6 6 6 6 6 6
8 10 10 10 9 9 10 10 11 13 14 15 15 15 15 16 15 15 14 14 14 13 13 13 13 12 12 12 13 13 12 12 12 11 11 10 10 9 9 8 8 7 6 6 5 5 5 5 5
9 9 9 9 9 8 10 10 11 12 14 15 15 15 14 14 14 14 13 13 13 13 13 12 12 12 12 12 12 12 12 12 12 11 11 10 9 9 8 8 7 6 6 5 5 5 4 4 3
8 8 8 8 8 8 10 10 11 12 14 15 15 14 13 13 13 13 13 13 13 12 12 12 12 12 12 12 12 12 12 12 11 11 10 9 9 8 8 7 6 6 5 4 4 4 4 3 3
8 8 8 7 7 8 10 10 11 13 15 15 16 14 12 12 12 13 13 13 13 12 12 12 12 12 12 12 12 12 11 11 10 10 9 8 8 7 7 6 6 5 4 4 3 3 3 3 2
7 8 8 8 9 10 11 11 12 14 14 13 13 12 11 11 11 12 12 12 12 12 12 12 12 12 12 12 12 12 11 10 10 9 8 8 7 7 6 6 5 4 4 3 3 3 2 2 2
8 8 8 7 8 9 11 11 13 14 14 12 11 11 11 11 10 11 12 12 12 12 12 11 12 12 12 12 11 11 10 10 9 8 8 7 6 6 5 5 4 4 3 3 2 2 1 1 1
7 7 8 8 9 9 11 12 14 15 14 13 12 12 11 10 10 11 12 12 12 12 11 11 11 12 12 11 11 10 10 9 8 7 7 6 6 5 5 4 3 3 2 2 1 1 1 0 -0
8 8 9 8 9 9 9 11 14 14 14 13 12 12 11 10 10 11 12 11 11 11 11 11 11 11 11 10 10 9 8 8 7 6 6 5 5 4 3 3 2 2 2 1 1 0 -0 -1 -2
Wind_Speed
18 16 4 4 6 4 4 6 5 6 5 4 3 3 7 4 2 4 3 9 12 12 12 16 16 16 16 17 16 14 13 12 11 10 9 8 7 7 8 7 6 5 4 4 3 4 4 3 3
12 6 6 5 4 1 5 5 3 4 5 6 2 5 6 4 1 5 5 9 15 13 13 14 16 17 17 17 15 14 13 11 10 9 6 6 6 7 9 9 8 6 4 3 1 1 2 3 4
9 4 4 4 1 5 5 4 4 4 6 4 3 6 6 3 3 5 7 13 12 11 14 15 18 18 18 17 15 14 12 10 9 8 5 3 2 3 7 10 10 9 7 4 1 1 3 4 5
4 5 5 3 7 8 6 8 6 3 6 5 3 6 3 1 4 6 10 14 12 11 13 16 19 18 18 17 15 14 12 10 9 8 5 3 2 2 6 10 10 10 8 4 2 2 4 6 7
4 4 1 4 8 7 6 8 8 3 4 7 2 5 2 4 1 7 10 13 13 11 12 16 19 19 19 17 15 14 13 12 10 8 7 6 4 4 3 10 10 8 6 4 3 4 6 7 9
4 4 3 7 10 9 7 8 7 4 0 4 4 4 4 2 5 8 8 11 13 13 11 15 19 20 19 17 15 14 13 12 10 9 8 6 4 3 2 9 10 7 5 4 4 6 8 9 10
4 4 6 7 8 10 8 5 6 7 4 2 0 4 3 4 8 9 8 10 10 12 10 10 15 17 18 17 15 14 13 12 11 9 7 7 5 3 2 6 7 5 4 4 5 8 9 10 10
5 5 7 7 8 10 5 4 5 7 6 4 4 6 6 8 8 7 7 10 10 10 12 10 12 13 14 14 15 14 12 12 13 10 9 8 6 5 3 5 6 6 6 7 8 10 11 11 12
3 4 9 9 9 9 4 4 6 3 4 3 3 7 8 5 7 7 5 6 9 10 10 11 10 10 12 12 12 13 12 13 14 12 10 8 5 5 6 8 9 10 10 10 11 11 12 12 12
6 10 11 8 8 8 6 5 8 4 2 1 2 3 2 8 8 9 9 9 11 13 13 11 12 11 10 10 10 10 10 12 12 10 8 6 5 6 8 10 12 12 11 11 12 12 12 12 10
7 9 7 10 10 8 8 5 6 6 7 6 5 3 2 6 8 10 11 10 13 12 12 13 12 11 9 6 7 7 8 9 10 10 8 6 4 4 4 4 6 8 8 7 9 9 9 8 7
7 7 7 7 8 9 8 5 7 8 10 8 8 5 6 10 11 13 13 12 11 10 11 12 13 10 9 6 5 5 5 5 5 8 8 6 3 1 1 1 2 2 3 3 4 4 6 7 8
10 9 12 11 11 13 14 12 10 12 11 9 8 8 8 10 11 11 11 11 11 13 13 11 12 12 9 8 6 4 4 4 5 7 9 8 4 3 2 3 5 5 6 5 4 4 5 6 6
6 7 10 12 14 13 16 17 12 14 12 10 9 11 11 11 11 9 8 8 9 12 13 11 11 11 11 8 6 5 4 5 5 5 6 7 6 4 5 6 5 6 8 7 6 5 6 6 6
5 7 10 9 9 7 9 17 13 13 11 10 11 12 12 10 9 9 8 6 7 8 10 11 12 11 11 9 7 6 5 7 6 8 11 12 12 10 6 7 7 5 8 8 7 7 5 7 8
4 5 7 6 7 7 10 21 9 10 12 12 12 12 11 9 9 8 8 7 7 8 9 10 11 11 11 9 8 6 7 9 9 11 13 15 14 13 8 7 5 7 9 6 6 6 6 6 7
5 6 7 5 6 7 12 12 9 11 10 12 13 12 10 9 8 7 7 7 8 8 9 9 11 12 11 10 10 10 9 9 9 11 11 13 14 14 10 6 5 8 6 6 6 5 4 5 7
7 7 7 7 3 8 16 18 9 10 11 13 13 11 9 11 10 8 7 7 7 6 8 9 12 12 14 12 11 11 10 8 7 8 10 13 13 14 11 5 6 6 6 6 5 5 4 3 6
7 10 10 4 7 8 15 19 15 14 13 12 12 9 11 11 8 7 7 8 7 7 9 10 14 14 14 12 10 9 7 6 6 6 11 13 13 13 9 4 6 5 5 5 5 4 5 4 5
11 16 15 9 7 9 13 19 14 17 15 13 13 11 12 9 8 7 7 6 6 8 9 11 12 13 13 10 7 6 6 6 5 5 8 12 12 11 9 6 6 5 5 7 7 5 3 3 4
14 14 10 10 13 13 14 15 14 13 12 13 11 11 16 17 14 10 8 8 9 9 10 11 12 12 13 12 11 10 7 5 4 5 5 7 11 11 10 7 5 6 6 5 5 5 4 3 3
16 9 10 11 9 7 6 10 9 10 13 16 14 12 16 13 11 10 11 11 10 9 10 12 12 13 13 12 12 13 8 6 5 4 4 6 9 10 10 8 7 5 4 4 4 4 3 3 4
8 5 10 11 11 12 11 12 9 7 13 18 17 16 18 16 16 15 14 13 11 10 10 11 12 12 11 10 11 11 7 5 5 6 7 6 6 7 8 8 5 4 3 3 4 5 5 4 3
8 6 9 9 7 12 14 11 10 8 12 12 16 16 18 17 14 12 10 12 11 9 10 10 11 10 9 11 10 11 10 10 9 8 6 5 4 4 5 5 4 3 3 4 4 5 5 5 4
12 8 6 7 8 8 8 11 12 12 15 15 15 17 19 18 18 17 16 15 14 12 11 11 12 11 10 11 11 11 11 10 10 9 7 5 3 2 2 3 3 3 4 4 4 5 6 5 5
15 16 10 6 6 5 10 12 10 16 19 14 13 17 22 20 18 18 17 17 16 14 12 12 13 12 11 12 11 10 10 8 7 7 6 5 3 3 1 2 3 4 5 5 5 4 5 5 6
8 13 13 6 5 5 8 7 8 14 12 8 12 19 23 22 20 18 16 15 15 14 12 12 14 12 11 12 12 10 10 9 8 8 6 4 3 2 3 3 4 4 5 5 6 5 7 7 6
10 9 8 8 6 7 7 8 8 12 12 9 16 20 19 19 17 17 16 16 13 12 10 10 11 12 11 11 10 10 9 9 8 7 6 5 3 3 4 4 5 6 6 6 6 7 7 8 7
11 11 8 9 7 5 5 7 7 14 14 16 19 20 22 21 20 18 15 13 12 12 11 10 10 10 10 9 9 10 9 8 8 6 5 4 3 3 4 5 5 6 7 7 7 8 9 8 8
13 13 13 10 8 6 5 9 7 8 13 17 18 17 17 18 17 15 14 12 13 13 11 10 10 10 9 9 9 9 8 8 7 6 4 4 3 3 4 5 6 7 8 8 8 9 9 9 9
Wind_Direction
323 331 12 45 46 41 278 277 297 337 322 285 266 138 121 113 188 174 147 141 146 155 165 164 166 168 163 154 152 149 145 143 144 149 154 157 159 146 142 135 116 101 84 57 26 3 357 2 355
323 343 31 51 76 326 272 263 282 294 280 289 339 82 91 62 84 128 134 154 150 158 164 167 170 169 164 157 157 155 154 154 157 159 151 158 175 176 166 156 148 150 144 123 61 356 340 320 308
325 32 61 61 157 205 240 250 258 283 302 315 53 75 97 89 160 181 168 160 149 159 167 170 172 170 166 163 162 161 161 163 167 168 153 152 173 196 188 174 169 167 163 157 162 328 324 320 314
19 28 49 81 250 239 238 276 264 297 328 344 63 78 78 45 186 184 150 157 153 164 169 172 172 172 169 167 167 168 169 171 173 176 168 138 63 321 214 192 181 172 166 173 203 288 303 301 298
54 74 20 265 254 253 247 265 247 179 325 335 29 109 108 332 100 155 150 158 161 168 172 173 172 170 169 171 172 174 179 180 176 176 172 142 80 39 155 181 182 178 181 201 245 297 313 310 300
54 86 167 237 255 272 279 255 225 171 75 357 23 124 177 237 157 180 166 159 164 165 167 174 172 167 170 174 176 179 186 185 177 177 175 158 123 65 119 172 177 189 214 246 277 294 302 303 300
144 146 205 223 257 276 274 276 200 156 149 191 246 139 234 236 203 183 158 153 157 159 161 166 169 169 173 176 178 184 190 181 171 172 171 165 163 147 133 172 181 205 236 265 284 286 286 287 287
172 167 213 211 230 259 261 271 246 168 187 200 134 150 230 230 206 178 148 146 159 163 168 168 169 171 172 175 181 184 181 173 168 167 169 175 190 206 207 195 209 226 241 259 270 272 273 276 279
145 185 216 205 206 242 247 307 297 254 171 178 159 183 236 184 152 152 152 152 167 179 180 175 176 176 175 176 184 179 176 175 173 177 187 186 201 231 235 227 228 228 238 253 262 266 270 276 279
184 220 221 207 206 241 261 253 265 264 218 214 307 318 353 126 160 178 186 191 187 190 190 182 182 182 178 182 178 175 174 179 181 189 201 200 213 230 221 221 224 231 245 262 274 280 284 284 279
207 222 209 218 227 249 271 264 246 226 228 212 223 268 128 162 198 210 209 205 203 194 187 188 187 184 176 172 166 173 178 185 194 200 205 206 216 239 221 232 256 266 279 287 293 299 300 298 291
249 238 217 227 240 252 259 265 265 234 225 216 214 222 196 206 214 221 218 215 211 197 192 182 186 182 174 163 162 167 176 185 200 212 212 186 173 196 266 287 299 306 304 300 314 330 349 359 357
249 261 264 264 255 260 270 263 260 255 247 244 254 263 252 247 240 237 237 220 199 195 194 177 173 171 161 155 152 153 160 175 185 179 176 160 136 122 88 58 47 33 31 32 28 20 16 14 3
263 266 261 260 259 256 260 267 256 255 249 244 254 264 264 265 264 238 219 214 199 194 187 170 161 157 151 149 144 135 134 147 142 129 128 116 105 93 77 59 44 36 38 46 46 29 25 14 5
295 293 285 259 256 255 273 267 249 241 239 241 249 258 266 261 239 208 190 186 190 180 169 163 156 147 144 141 133 123 115 111 92 82 79 81 83 85 82 67 51 33 37 41 41 27 24 20 8
308 276 259 252 227 231 235 258 258 243 224 236 245 254 261 242 216 196 172 156 141 136 145 159 156 143 138 132 121 108 97 97 93 87 82 81 82 85 78 66 49 42 44 36 36 24 14 12 358
241 254 248 259 220 213 228 254 221 238 223 235 243 249 248 219 203 192 168 157 145 134 133 140 143 139 127 113 106 101 97 93 94 90 86 82 80 80 78 66 49 49 44 33 30 26 21 4 347
226 234 238 226 260 232 247 257 254 260 232 232 245 250 220 202 200 187 161 151 143 133 131 133 135 125 118 112 109 103 93 88 85 87 87 85 79 77 75 64 49 51 49 34 25 14 4 0 338
279 277 275 290 319 294 269 270 257 252 247 239 244 234 208 204 203 184 146 135 127 120 125 132 132 130 126 126 123 118 109 99 87 81 82 80 77 73 68 58 47 45 54 43 28 10 357 348 342
252 266 279 301 297 293 292 284 265 246 243 232 228 211 197 191 190 175 144 139 131 122 121 124 129 131 130 131 125 119 116 102 87 82 73 76 75 71 69 62 55 44 44 35 27 21 5 348 6
245 249 265 278 306 296 293 284 258 251 242 244 225 198 190 185 182 171 151 141 128 127 131 133 132 131 128 127 122 116 98 88 84 81 74 71 76 72 70 66 63 50 47 33 17 16 27 355 347
250 240 247 259 265 269 262 281 262 240 234 238 229 196 190 185 174 165 155 145 137 136 133 133 135 133 134 134 136 134 133 134 140 128 105 78 73 72 69 64 58 48 39 26 1 16 10 21 4
230 220 236 240 248 263 254 269 264 233 231 228 223 200 191 182 173 168 160 146 134 133 130 131 131 132 133 128 129 125 120 119 116 110 103 85 68 68 67 64 56 42 27 11 4 6 13 20 12
238 250 262 249 236 251 238 238 264 229 226 223 217 200 185 175 164 156 145 134 126 125 124 127 128 129 129 126 124 127 128 126 123 123 118 103 81 58 52 56 48 31 13 359 353 355 1 359 351
211 217 228 215 216 243 183 213 249 241 244 233 221 196 176 168 161 158 152 146 140 136 133 131 130 127 125 121 121 125 128 127 128 131 129 123 102 78 38 39 30 15 355 350 351 351 348 340 336
201 202 215 202 213 241 186 224 245 237 247 251 224 181 166 163 163 163 158 152 146 141 137 134 130 127 124 122 120 119 119 117 117 119 120 119 129 145 94 48 23 8 359 351 349 340 330 324 314
186 205 220 279 295 262 228 246 261 233 242 215 169 161 165 164 165 162 157 153 148 145 144 140 135 130 127 125 121 116 114 112 112 110 107 111 122 119 62 32 9 355 346 338 338 326 314 311 306
199 170 167 207 235 250 248 230 230 210 202 167 162 166 165 162 161 159 159 156 150 143 137 134 132 131 129 124 122 119 112 110 112 111 114 115 99 63 37 8 351 338 332 330 327 314 307 308 304
192 195 189 188 233 249 258 251 228 209 177 170 176 173 168 165 164 163 161 155 143 136 137 135 130 127 123 117 112 111 109 109 109 112 117 112 84 50 18 349 337 331 327 323 317 308 306 301 300
204 199 194 195 206 220 292 283 295 213 171 174 177 172 167 163 161 160 157 148 144 144 142 136 131 126 121 116 110 108 109 111 113 116 111 94 61 21 351 337 330 327 325 318 311 306 307 299 300
Height
1519 1518 1515 1513 1515 1526 1525 1516 1506 1501 1497 1494 1492 1492 1494 1497 1500 1504 1500 1498 1499 1500 1500 1502 1503 1506 1507 1507 1507 1507 1507 1506 1506 1505 1506 1507 1509 1510 1511 1512 1511 1510 1509 1508 1508 1508 1508 1509 1509
1518 1517 1516 1514 1523 1532 1525 1511 1505 1500 1496 1493 1492 1492 1494 1496 1496 1497 1496 1497 1499 1500 1500 1501 1503 1505 1506 1506 1507 1507 1507 1506 1505 1505 1506 1507 1508 1509 1510 1511 1510 1510 1509 1508 1507 1507 1507 1508 1508
1517 1516 1517 1517 1524 1529 1518 1507 1502 1498 1496 1493 1492 1492 1495 1497 1497 1497 1496 1497 1499 1500 1500 1501 1503 1504 1505 1506 1507 1507 1507 1506 1505 1505 1506 1507 1508 1509 1510 1510 1510 1510 1509 1508 1507 1507 1507 1507 1507
1517 1516 1517 1522 1522 1517 1511 1505 1501 1498 1495 1494 1492 1493 1495 1497 1497 1497 1496 1497 1499 1500 1501 1501 1502 1504 1505 1505 1506 1507 1507 1506 1505 1505 1506 1506 1507 1509 1510 1510 1510 1509 1509 1508 1507 1506 1506 1506 1505
1516 1516 1520 1524 1518 1509 1505 1502 1499 1496 1496 1495 1494 1493 1495 1496 1496 1497 1496 1497 1498 1500 1501 1501 1502 1503 1504 1505 1505 1506 1506 1506 1506 1506 1506 1506 1507 1509 1510 1510 1510 1509 1509 1508 1508 1507 1506 1505 1505
1515 1515 1526 1526 1516 1506 1501 1499 1498 1495 1495 1495 1495 1494 1493 1495 1496 1497 1497 1496 1498 1499 1500 1501 1501 1503 1504 1504 1505 1505 1505 1506 1506 1506 1506 1506 1507 1509 1510 1510 1510 1509 1508 1508 1507 1506 1506 1505 1505
1514 1517 1521 1518 1514 1507 1499 1496 1495 1493 1493 1494 1494 1495 1494 1494 1494 1495 1496 1496 1497 1498 1499 1500 1501 1502 1503 1503 1504 1505 1505 1505 1506 1506 1505 1505 1506 1508 1509 1509 1509 1508 1507 1507 1506 1506 1506 1505 1504
1510 1513 1514 1513 1511 1505 1497 1495 1493 1491 1491 1492 1493 1494 1494 1494 1493 1494 1495 1496 1496 1497 1498 1499 1500 1501 1501 1502 1503 1504 1504 1505 1505 1505 1505 1505 1505 1507 1508 1508 1508 1508 1507 1506 1506 1506 1505 1504 1502
1507 1513 1510 1507 1504 1499 1494 1494 1493 1491 1490 1490 1491 1493 1493 1493 1492 1493 1494 1495 1494 1495 1496 1498 1498 1499 1500 1501 1502 1502 1503 1504 1504 1504 1504 1504 1505 1506 1507 1507 1507 1507 1506 1505 1505 1504 1503 1502 1501
1503 1504 1498 1495 1494 1492 1492 1494 1493 1491 1489 1488 1489 1491 1490 1491 1491 1491 1492 1492 1492 1492 1494 1495 1497 1498 1499 1499 1500 1501 1501 1503 1503 1503 1503 1504 1505 1506 1507 1507 1506 1506 1505 1504 1504 1503 1501 1500 1498
1495 1494 1490 1489 1490 1490 1489 1490 1490 1489 1488 1486 1487 1488 1490 1490 1491 1491 1491 1490 1490 1491 1491 1492 1494 1495 1496 1497 1498 1499 1500 1501 1502 1502 1503 1503 1504 1506 1506 1506 1505 1504 1503 1503 1502 1501 1500 1498 1496
1491 1487 1486 1486 1488 1488 1487 1487 1487 1486 1484 1484 1484 1486 1487 1489 1489 1489 1488 1487 1487 1488 1489 1490 1491 1493 1494 1495 1496 1497 1498 1499 1500 1502 1502 1502 1503 1505 1505 1505 1504 1503 1502 1501 1500 1499 1497 1496 1494
1489 1486 1485 1484 1485 1486 1485 1483 1483 1482 1483 1482 1482 1482 1483 1484 1484 1485 1485 1484 1484 1484 1486 1486 1488 1489 1491 1493 1494 1496 1497 1498 1499 1500 1501 1501 1502 1503 1504 1503 1502 1501 1500 1499 1498 1497 1496 1494 1492
1485 1483 1482 1483 1483 1483 1483 1479 1479 1476 1478 1478 1477 1477 1477 1479 1479 1479 1479 1480 1480 1481 1482 1483 1485 1486 1488 1491 1493 1494 1495 1497 1498 1500 1500 1501 1502 1502 1502 1502 1501 1500 1499 1498 1497 1495 1493 1490 1488
1485 1483 1481 1478 1479 1479 1481 1475 1472 1472 1473 1472 1472 1473 1473 1474 1474 1474 1474 1475 1476 1477 1479 1480 1482 1484 1486 1489 1491 1492 1494 1496 1497 1498 1499 1499 1500 1501 1501 1501 1500 1499 1498 1496 1495 1493 1490 1487 1484
1485 1484 1482 1475 1475 1475 1482 1470 1468 1467 1468 1467 1467 1468 1469 1470 1470 1470 1470 1470 1471 1473 1475 1478 1479 1481 1484 1487 1488 1490 1492 1494 1496 1497 1498 1499 1499 1500 1501 1501 1500 1498 1496 1494 1491 1489 1486 1482 1479
1485 1486 1482 1476 1471 1471 1472 1465 1463 1463 1463 1462 1462 1462 1464 1465 1465 1466 1466 1467 1468 1469 1472 1475 1477 1479 1481 1484 1486 1488 1490 1492 1495 1496 1497 1498 1499 1500 1501 1500 1498 1496 1494 1491 1488 1485 1482 1478 1475
1482 1482 1478 1477 1471 1470 1467 1460 1461 1459 1458 1457 1456 1457 1458 1459 1460 1462 1462 1463 1465 1466 1468 1471 1474 1476 1478 1481 1484 1486 1489 1491 1494 1496 1497 1498 1499 1500 1500 1498 1496 1494 1491 1488 1485 1482 1479 1476 1472
1481 1479 1479 1477 1473 1472 1465 1459 1456 1454 1453 1451 1451 1451 1452 1454 1457 1459 1459 1460 1461 1462 1465 1468 1470 1472 1475 1479 1482 1484 1488 1491 1494 1495 1496 1497 1498 1498 1498 1496 1494 1492 1488 1485 1482 1479 1477 1473 1469
1480 1479 1478 1478 1473 1470 1465 1456 1450 1446 1445 1445 1445 1446 1448 1451 1453 1454 1455 1456 1458 1459 1462 1464 1467 1471 1474 1478 1481 1484 1487 1491 1494 1495 1495 1496 1496 1497 1496 1495 1492 1490 1487 1483 1480 1477 1474 1471 1467
1476 1478 1480 1480 1476 1468 1466 1454 1446 1439 1438 1439 1439 1440 1442 1445 1447 1449 1451 1454 1456 1458 1461 1464 1467 1471 1475 1478 1481 1483 1487 1490 1492 1494 1494 1495 1495 1495 1494 1492 1490 1488 1485 1481 1479 1475 1472 1469 1467
1473 1472 1474 1475 1478 1473 1466 1456 1441 1434 1433 1431 1432 1434 1435 1439 1443 1446 1448 1451 1454 1457 1461 1464 1468 1471 1475 1477 1479 1482 1485 1488 1491 1492 1493 1493 1493 1493 1492 1490 1488 1486 1483 1480 1477 1474 1471 1468 1465
1469 1468 1470 1470 1472 1471 1463 1462 1440 1431 1428 1422 1422 1425 1428 1433 1438 1442 1445 1447 1452 1456 1460 1464 1467 1471 1474 1477 1479 1483 1486 1488 1490 1491 1492 1492 1492 1491 1490 1488 1486 1483 1481 1478 1476 1473 1470 1467 1464
1465 1467 1467 1465 1467 1466 1453 1458 1435 1427 1417 1414 1413 1416 1421 1428 1434 1439 1444 1446 1450 1455 1459 1463 1466 1470 1473 1475 1479 1482 1484 1487 1488 1489 1490 1490 1490 1489 1488 1486 1483 1481 1478 1476 1473 1470 1468 1465 1462
1464 1469 1469 1465 1463 1457 1443 1446 1428 1417 1408 1405 1406 1408 1414 1422 1429 1435 1439 1443 1447 1452 1458 1462 1465 1468 1471 1474 1477 1481 1483 1485 1487 1487 1488 1488 1488 1487 1486 1484 1481 1478 1475 1473 1470 1467 1464 1461 1458
1453 1458 1460 1461 1461 1450 1437 1432 1417 1406 1399 1397 1398 1401 1408 1417 1425 1431 1435 1439 1444 1450 1456 1461 1464 1466 1470 1472 1475 1478 1481 1483 1484 1485 1485 1486 1485 1484 1483 1481 1478 1476 1473 1470 1466 1463 1460 1456 1453
1449 1450 1451 1453 1445 1440 1428 1417 1406 1395 1392 1390 1392 1398 1404 1411 1420 1427 1432 1437 1442 1449 1454 1459 1462 1465 1468 1471 1474 1476 1479 1481 1482 1483 1484 1484 1483 1482 1480 1478 1476 1473 1469 1466 1462 1459 1455 1451 1447
1440 1442 1449 1454 1449 1440 1422 1413 1401 1387 1386 1389 1393 1397 1403 1410 1418 1424 1431 1436 1442 1448 1453 1459 1462 1464 1467 1470 1472 1475 1477 1479 1480 1481 1482 1482 1481 1479 1477 1475 1472 1469 1466 1462 1458 1454 1450 1446 1442
1437 1439 1436 1439 1439 1431 1419 1407 1383 1376 1375 1385 1391 1395 1400 1408 1415 1422 1430 1436 1441 1447 1452 1457 1461 1463 1466 1468 1471 1473 1475 1477 1478 1479 1480 1479 1478 1476 1474 1471 1468 1465 1461 1457 1453 1449 1445 1440 1436
1426 1426 1427 1431 1431 1430 1426 1409 1379 1372 1372 1380 1388 1395 1401 1407 1415 1422 1429 1434 1440 1445 1450 1455 1459 1462 1464 1467 1469 1471 1473 1475 1477 1477 1477 1476 1475 1473 1470 1467 1464 1460 1456 1452 1448 1443 1439 1435 1430